Theta_e
316 316 318 318 320 320 321 321 322 323 323 324 324 324 325 323 322 321 323 322 324 325 326 326 326 327 327 326 326 324 319 303 303 300 298 302 311 322 322 323 324 325 323 311 304 301 297 297 298 298 297 294 297 298 297 298 294 291 288 282 280 281 283 283 287 286 289 289 288 292 291 292 290 292 295 296 295 294 293 293 295 296 297 298 296 296 297 299
316 317 318 319 320 321 321 322 323 323 323 323 324 324 324 323 323 323 323 323 323 326 326 326 326 326 326 326 325 323 309 304 301 298 301 311 322 325 325 325 325 324 318 302 301 301 297 295 295 297 294 291 295 295 300 297 295 291 284 284 282 280 284 287 288 288 290 288 290 291 291 291 292 292 294 292 289 291 292 293 294 295 297 298 295 296 298 298
318 318 319 320 320 320 321 321 322 322 323 323 324 324 324 324 324 325 324 324 326 326 326 326 326 326 325 325 323 322 308 301 298 296 300 322 324 325 326 325 324 322 306 302 301 305 302 298 296 296 292 293 291 293 295 293 297 289 287 282 282 285 286 288 290 291 291 291 290 291 291 291 291 292 293 291 289 288 290 292 291 293 296 297 294 294 296 297
317 318 319 319 319 320 321 321 322 322 323 323 324 324 324 324 325 325 324 324 326 326 326 326 326 325 324 323 322 312 303 297 294 296 301 317 323 325 325 326 324 313 308 306 305 307 304 301 297 296 294 292 290 293 294 294 291 290 287 283 283 285 288 289 289 290 290 291 291 291 291 290 291 292 293 290 289 289 291 293 294 293 295 297 295 294 295 296
317 318 318 318 319 319 320 321 321 322 322 323 323 324 324 324 324 325 325 325 326 326 326 327 325 325 323 321 320 308 297 290 293 301 304 319 323 324 323 323 322 306 307 306 306 305 302 298 296 293 293 288 288 290 290 291 292 290 287 285 287 287 288 287 290 290 290 289 289 288 290 290 291 292 291 290 289 289 290 294 294 296 296 296 296 294 295 295
316 317 317 318 318 319 320 320 321 322 322 323 323 324 324 324 324 324 325 325 326 326 327 326 323 321 321 318 306 303 298 283 297 298 316 319 321 321 321 322 322 306 308 302 301 299 295 294 293 290 288 289 288 289 288 291 294 288 284 287 286 287 289 289 290 290 289 290 289 288 289 292 291 290 289 291 292 295 294 293 295 296 297 297 298 295 294 295
316 316 317 318 318 319 319 320 321 321 322 323 323 324 324 324 324 325 325 326 326 326 326 325 323 322 319 317 304 298 294 293 297 302 313 318 319 317 318 317 316 306 304 300 298 297 292 292 292 289 290 289 286 288 292 294 294 290 286 286 290 288 289 289 290 289 288 289 288 290 291 290 289 288 289 289 294 296 297 294 294 296 297 296 294 295 295 295
316 317 317 317 318 318 319 319 320 321 322 322 323 324 324 324 324 324 325 326 326 326 325 324 323 319 318 306 304 294 291 293 299 302 311 315 307 305 310 305 304 303 300 298 298 296 295 293 292 293 290 290 289 292 293 292 290 290 288 290 289 289 288 287 287 288 287 288 289 289 288 289 289 289 288 292 295 295 295 295 295 295 295 294 294 295 295 295
316 317 317 317 317 318 318 319 320 321 322 323 322 323 324 324 324 324 325 325 326 327 325 324 322 319 316 301 297 293 290 296 300 304 301 301 301 303 302 303 302 300 299 296 296 297 296 293 294 293 289 291 293 293 292 289 284 291 290 290 289 290 289 287 288 288 288 290 289 289 288 288 288 289 288 293 294 295 294 293 294 294 294 295 295 296 296 295
316 317 317 317 317 318 318 319 320 321 322 321 322 323 325 325 324 324 324 324 324 324 324 323 323 320 307 302 295 288 294 299 301 302 300 299 301 303 301 301 300 299 299 296 298 298 297 296 296 297 294 293 295 293 291 291 287 292 290 290 290 291 290 289 288 287 288 289 288 288 287 287 287 289 287 290 292 292 292 291 291 292 293 295 296 296 296 296
316 317 317 316 317 318 319 320 319 320 321 321 323 323 325 325 324 324 325 325 323 324 324 324 323 313 299 298 289 288 299 302 301 300 301 300 302 301 300 300 299 300 299 296 297 298 299 298 296 298 296 291 295 291 292 292 294 292 291 289 287 288 290 289 287 287 287 289 286 287 288 287 286 288 288 293 295 293 291 291 291 290 292 293 295 295 296 296
316 316 316 317 317 318 319 319 319 320 321 322 324 325 325 324 323 323 324 324 325 323 322 323 319 304 297 295 292 295 301 303 302 300 302 301 302 303 302 303 301 302 300 297 298 297 297 299 301 297 290 296 290 292 292 293 294 292 290 287 286 287 288 288 288 287 289 288 290 287 287 285 285 286 291 293 293 291 289 290 291 291 291 292 293 294 294 295
316 316 316 317 318 319 319 319 320 321 322 323 324 325 324 324 322 322 323 320 322 322 322 321 315 306 299 293 297 301 300 301 301 301 301 300 301 302 302 302 301 302 302 300 299 301 300 299 299 295 297 294 291 288 292 294 293 292 289 287 288 285 284 289 288 288 288 289 289 290 281 283 283 287 291 292 291 289 289 290 291 292 291 292 292 293 293 294
315 315 316 317 318 319 319 320 321 321 322 323 324 324 321 321 320 319 321 319 321 322 322 323 306 300 295 292 298 303 306 302 302 302 300 301 302 302 300 302 301 300 302 300 299 298 302 300 298 296 297 293 291 297 292 288 289 289 287 284 278 279 279 285 287 286 288 290 288 289 279 284 289 292 291 290 289 289 289 292 292 292 292 291 291 292 293 294
315 315 316 317 319 319 319 320 321 322 322 322 322 321 320 319 320 321 323 319 319 321 320 319 309 303 293 295 301 304 315 302 300 300 300 301 299 300 300 300 302 298 297 300 300 299 301 300 297 293 292 295 294 291 285 283 284 284 281 275 277 277 280 286 288 287 286 288 288 288 278 282 288 291 293 291 289 289 291 293 293 293 292 292 292 292 292 293
315 315 316 318 318 318 319 320 320 319 321 320 320 320 320 320 319 321 322 320 321 318 309 305 303 297 292 292 299 310 299 297 299 301 299 301 300 299 299 298 299 297 299 300 299 300 299 297 294 292 292 290 288 282 279 278 277 279 280 274 276 276 278 283 285 287 288 287 288 288 284 285 287 292 294 295 292 291 290 291 291 292 292 292 292 292 292 292
315 315 317 317 317 318 319 320 319 319 320 320 319 318 319 319 320 320 319 319 311 316 309 302 301 300 292 298 302 296 295 296 300 300 300 301 300 299 299 297 298 296 298 297 297 300 297 296 295 295 290 287 284 281 273 273 275 274 276 277 277 277 280 280 285 286 287 287 284 285 282 284 288 291 292 293 292 290 289 289 290 291 291 291 290 291 291 292
315 316 317 317 317 319 320 320 319 319 319 319 318 315 307 317 318 314 311 310 310 308 305 305 301 298 292 296 292 294 297 296 299 299 298 300 300 299 299 297 296 295 295 296 298 295 296 293 291 287 283 285 284 282 280 274 277 278 278 277 279 278 279 281 280 284 288 284 285 284 283 285 288 290 290 291 291 289 289 290 290 290 290 291 291 291 291 291
315 316 317 317 318 319 320 319 319 319 317 319 320 319 317 316 305 301 301 302 298 293 289 292 292 284 285 292 294 294 297 298 300 297 299 299 298 298 299 300 296 295 292 290 294 294 291 287 286 281 280 281 283 281 279 282 280 281 281 279 278 276 280 281 283 285 285 284 283 282 282 285 286 287 289 291 291 289 289 291 291 290 290 289 289 290 290 289
315 316 316 317 318 319 319 319 319 318 317 308 306 306 300 298 292 292 297 300 293 294 294 295 295 295 295 293 295 298 299 300 298 297 298 299 298 297 298 297 294 294 290 288 288 292 288 282 277 277 279 283 283 282 284 284 284 283 281 279 279 278 280 282 283 285 285 284 279 282 282 283 285 287 288 289 289 288 290 290 290 290 290 290 290 289 288 288
315 316 316 317 318 319 319 319 318 318 317 306 303 299 295 293 289 290 290 294 294 296 296 296 295 295 295 295 295 297 293 294 295 296 298 301 298 296 294 295 290 289 289 288 289 291 287 282 280 281 283 284 285 283 283 284 283 283 281 278 279 278 278 284 283 284 284 283 280 281 281 284 286 287 287 287 286 288 288 289 289 289 289 291 290 290 291 291
315 315 315 317 318 318 319 318 318 318 315 302 300 298 297 297 301 297 293 289 295 296 296 294 294 295 294 295 296 296 293 292 296 297 299 301 297 293 293 291 287 287 288 287 284 283 282 282 284 284 284 284 283 283 283 284 284 281 280 278 275 278 280 282 282 283 285 283 280 279 282 284 285 286 286 284 285 286 287 287 288 287 289 290 290 289 290 291
314 315 316 317 318 319 318 318 317 317 306 301 299 296 298 302 302 301 297 290 291 295 294 293 293 291 293 295 296 296 292 291 288 295 296 298 295 294 290 289 287 286 287 287 285 280 281 282 284 285 284 285 283 281 281 280 280 279 277 277 277 278 278 277 281 282 286 281 279 280 280 283 282 282 286 285 286 284 285 286 287 288 290 289 289 289 288 289
314 315 316 317 318 318 318 316 315 306 298 299 297 298 301 300 300 302 298 291 290 294 296 296 294 292 293 295 297 297 291 292 290 293 296 295 292 293 289 289 285 284 285 283 285 285 281 286 287 284 281 285 284 281 281 279 279 279 279 276 276 279 280 279 281 282 283 279 281 281 282 279 275 281 284 287 287 285 286 286 287 287 286 288 288 288 289 289
314 315 316 317 317 318 316 315 304 300 299 297 298 301 298 299 300 303 296 288 285 289 297 295 295 295 296 300 299 298 295 293 293 293 293 295 293 290 290 291 284 283 283 284 281 282 282 286 286 283 281 280 281 281 281 280 279 278 276 281 281 280 280 279 280 280 278 275 281 282 272 273 274 280 281 283 285 285 283 283 285 287 288 287 287 288 288 289
314 315 316 317 317 316 317 305 302 300 301 297 300 301 297 298 301 302 288 279 277 284 293 289 299 293 298 295 295 295 294 289 293 295 297 296 297 295 287 284 287 284 284 282 282 282 284 284 284 284 280 280 280 281 283 280 277 274 280 279 281 280 279 278 278 278 273 273 277 281 273 271 278 280 281 280 281 282 283 281 284 286 287 287 287 287 287 288
314 315 316 318 317 317 304 298 300 302 302 302 301 297 297 298 300 300 296 275 274 286 287 294 295 294 300 293 292 293 280 284 292 295 295 298 294 297 286 283 281 284 287 283 277 279 285 283 281 280 280 280 279 280 281 281 276 277 279 280 281 280 279 278 279 278 276 277 279 279 275 272 272 280 279 280 279 280 281 283 283 285 286 286 286 287 286 287
315 316 316 317 316 312 305 302 299 299 301 305 298 296 297 298 299 297 281 270 272 290 286 289 295 297 296 293 293 288 290 289 286 291 295 296 293 291 287 284 283 283 284 278 275 280 283 283 282 281 279 280 280 282 283 282 280 280 279 281 281 280 279 279 276 276 275 275 273 275 279 273 268 277 281 279 281 279 281 282 284 284 285 287 287 288 287 288
315 315 316 316 315 313 306 304 299 300 301 297 295 297 300 300 295 291 277 272 284 287 298 291 302 293 290 292 288 286 288 290 286 290 293 293 295 290 283 284 283 283 282 282 278 278 283 283 283 283 279 280 282 281 280 282 281 280 280 281 279 278 279 279 274 276 272 272 265 273 277 271 273 278 279 277 278 277 280 282 283 285 284 285 287 287 288 287
316 315 315 314 310 305 301 299 298 300 299 295 296 297 300 295 291 278 269 270 285 280 289 290 290 287 284 284 282 287 288 286 287 288 290 286 291 292 289 289 284 278 279 280 280 282 283 286 287 284 282 285 283 282 280 281 283 283 280 279 278 275 275 276 274 271 266 261 267 275 278 276 269 275 278 278 282 280 280 281 284 285 284 285 286 287 288 287
314 314 312 313 303 301 303 301 300 297 296 297 297 300 295 285 276 271 269 277 288 286 285 283 284 285 282 283 281 284 284 282 286 284 284 286 286 287 286 281 282 276 276 280 278 281 280 282 285 282 286 284 283 282 281 281 282 280 278 277 276 271 273 272 269 268 265 266 270 272 276 275 267 271 276 277 278 278 280 281 283 284 285 285 286 287 287 285
313 313 313 303 301 300 298 296 301 294 294 295 298 290 289 277 281 277 276 287 279 281 281 280 281 281 282 279 281 282 281 281 283 282 281 279 280 282 281 279 276 275 275 276 279 279 278 283 282 282 286 284 281 279 279 279 279 281 278 279 273 265 266 263 267 267 262 265 273 273 277 274 272 276 280 283 283 282 280 282 283 283 284 286 287 286 286 285
312 311 310 305 300 295 297 296 295 295 297 299 289 284 279 274 270 272 272 277 278 283 281 284 282 281 280 278 280 281 281 282 283 283 283 281 279 278 280 281 279 277 273 273 274 275 276 277 281 280 283 284 282 278 277 278 277 280 277 269 265 263 257 260 260 262 262 273 275 275 274 274 275 276 278 280 282 283 283 283 281 281 283 285 285 284 284 284
311 309 300 302 298 300 298 296 296 296 297 293 287 285 283 277 271 284 274 274 280 280 282 280 280 278 279 279 281 281 279 281 282 282 281 280 278 278 277 280 280 278 273 276 275 272 270 271 276 280 279 282 282 280 283 280 278 278 277 278 271 265 265 262 260 264 267 270 276 276 268 264 269 276 278 280 284 282 281 280 280 282 284 283 283 284 286 286
310 304 300 298 296 300 296 296 297 297 290 291 286 279 276 269 270 273 272 275 276 280 280 280 280 276 279 278 279 280 281 278 281 278 279 278 278 275 278 278 280 279 276 273 270 270 277 273 280 281 282 284 283 282 282 282 276 277 277 277 273 272 271 267 265 262 264 269 270 270 270 268 276 279 283 282 279 283 283 285 285 285 285 285 285 285 285 285
305 300 296 296 297 299 295 298 295 295 290 288 286 279 274 272 274 276 276 283 281 279 280 278 277 277 274 276 275 277 281 279 281 276 276 277 279 279 280 279 280 280 277 272 270 270 272 272 275 281 282 281 281 282 281 282 270 277 278 272 278 276 277 268 272 273 272 267 268 269 273 276 277 282 281 280 281 281 283 284 284 284 284 284 283 284 284 284
298 295 298 297 297 301 298 296 296 291 293 288 284 275 272 276 281 277 285 282 281 281 275 273 276 277 274 274 275 274 279 279 277 276 277 279 278 280 279 279 282 280 280 278 272 272 271 275 280 279 280 281 280 281 283 282 281 276 271 275 279 279 276 272 267 262 262 262 268 268 271 274 273 272 279 278 277 279 280 282 283 283 283 282 283 283 283 283
298 294 293 295 296 299 297 295 291 290 287 288 280 284 278 279 282 282 281 281 282 280 275 276 277 279 273 274 275 275 279 276 281 277 277 278 279 281 279 279 280 281 280 278 276 274 277 269 276 276 279 280 279 282 278 281 282 281 280 279 278 268 268 270 264 263 262 263 265 269 273 273 270 272 274 274 275 277 278 280 281 281 282 282 282 283 283 283
291 289 287 295 298 298 299 293 293 291 288 283 274 283 282 279 281 280 281 281 281 279 276 278 276 278 278 272 274 273 274 275 275 278 273 278 275 281 280 280 280 279 278 281 278 276 276 270 274 276 280 280 276 277 273 273 277 280 280 281 279 276 270 268 269 263 265 266 262 265 269 270 272 271 274 274 276 276 277 278 279 280 281 282 282 282 282 282
297 286 286 296 297 297 297 294 295 288 285 281 274 277 281 282 283 282 280 283 281 278 278 279 280 274 276 279 277 275 276 278 278 277 278 279 278 280 280 281 279 280 279 279 278 279 275 275 267 275 277 277 276 276 276 276 273 274 274 270 274 273 275 273 270 270 270 264 262 262 265 269 272 276 275 275 276 277 277 277 278 280 281 282 282 282 282 283
286 286 288 295 298 297 295 295 286 281 279 278 278 281 281 282 283 284 281 281 283 284 281 281 278 276 279 276 275 278 278 276 277 275 278 276 278 274 279 280 279 279 278 279 276 275 271 273 270 275 276 275 278 277 277 279 278 278 274 273 275 270 274 268 270 269 268 269 265 262 267 271 274 278 277 276 277 277 278 278 278 279 280 281 282 283 283 283
283 278 286 299 296 294 294 286 278 277 278 276 279 283 284 290 282 282 280 280 281 283 282 281 280 280 278 280 280 278 279 274 276 275 277 276 280 279 279 278 280 281 276 276 277 277 278 275 274 270 275 279 281 283 279 280 279 278 277 278 273 269 268 269 267 269 266 269 266 269 267 268 274 277 278 278 278 278 278 278 278 279 280 281 282 283 283 283
283 286 295 296 294 292 291 278 278 280 277 282 283 282 281 283 281 282 282 283 283 283 283 282 283 281 281 282 280 279 280 274 278 277 279 278 276 278 279 278 280 280 280 273 275 280 285 270 266 274 277 278 279 279 277 276 280 279 277 277 275 274 275 273 273 271 268 272 270 268 266 270 275 278 278 278 278 278 278 279 278 279 280 280 281 282 282 283
284 288 291 297 294 292 288 279 277 276 278 283 281 282 283 282 281 281 281 281 282 280 282 282 282 282 282 281 280 281 281 273 279 279 277 277 280 282 279 279 279 278 277 277 275 279 272 271 273 267 268 276 278 276 279 277 277 276 275 275 274 274 272 269 268 264 268 273 273 270 266 269 277 280 278 278 278 277 277 278 280 279 280 280 281 281 282 282
283 282 285 290 295 291 281 277 282 278 278 278 278 279 280 281 282 283 283 282 282 280 280 282 283 282 282 282 281 281 280 280 276 278 276 275 278 277 274 276 278 279 280 281 285 279 275 274 271 267 266 267 268 269 272 275 276 277 278 278 278 274 274 272 270 268 267 270 272 267 266 273 277 278 277 277 277 276 278 278 279 280 279 280 280 281 281 281
281 284 282 285 287 286 282 280 279 279 276 273 277 279 278 279 282 282 283 283 282 283 281 283 282 282 279 279 279 278 280 281 280 275 273 276 274 277 278 274 276 279 282 283 280 279 271 272 274 271 268 270 274 277 280 279 277 275 276 275 274 276 275 270 268 267 268 271 270 271 270 271 273 274 275 275 276 276 276 278 278 279 280 281 281 280 280 281
282 284 277 281 281 284 278 280 280 278 279 278 277 279 275 279 279 282 284 282 283 283 283 281 281 280 279 278 278 278 278 279 277 277 274 274 271 275 276 278 278 279 283 280 279 273 268 270 274 276 275 277 278 278 279 278 276 276 272 272 274 274 273 271 270 268 274 271 268 273 272 270 272 274 274 274 276 276 277 277 278 279 280 280 280 280 282 280
283 282 281 286 284 281 277 282 279 282 280 278 278 280 278 276 278 275 281 283 283 281 283 281 279 280 280 281 280 274 279 278 275 274 274 271 271 278 278 278 277 281 281 278 275 275 271 270 268 270 270 275 277 277 278 277 276 275 274 274 272 273 273 271 271 273 273 270 268 272 272 270 272 274 275 276 276 276 277 278 279 280 280 279 279 279 279 279
282 282 283 284 282 279 279 283 280 282 282 279 280 281 277 276 277 280 280 281 280 280 281 276 279 279 279 278 280 276 277 271 271 270 271 272 272 275 270 274 279 279 278 277 277 272 272 269 267 267 273 276 276 276 277 276 275 274 273 273 273 273 272 273 273 275 273 272 273 273 272 271 274 274 276 277 278 279 279 280 280 278 278 278 278 278 278 278
283 282 284 280 280 277 277 278 280 280 282 281 276 281 280 279 280 280 281 280 275 279 280 280 279 280 279 279 280 277 278 279 278 274 272 273 277 273 269 273 274 274 277 276 274 275 274 271 275 268 272 276 277 276 273 274 274 273 274 273 273 273 273 273 273 274 274 273 274 273 271 270 275 277 276 278 278 278 278 277 277 277 277 277 277 277 277 277
282 277 286 285 281 280 278 275 278 278 276 280 277 281 281 279 281 280 281 282 282 281 281 280 280 280 278 279 279 280 281 281 281 282 281 279 276 276 275 273 278 274 273 271 272 271 270 269 269 267 272 274 278 277 277 278 275 273 271 272 272 272 269 271 270 274 272 270 272 271 268 269 274 277 277 277 276 276 275 276 276 276 276 277 276 276 277 277
280 282 282 283 280 281 278 276 276 277 279 279 282 282 281 283 282 281 282 282 279 282 282 282 280 280 277 277 278 280 281 280 281 281 280 279 279 279 278 278 277 274 273 269 267 272 267 267 269 266 271 273 278 278 277 276 273 267 269 271 272 273 273 273 274 275 275 275 270 267 268 273 274 276 274 274 275 275 275 276 276 276 277 277 277 277 277 278
Wind_Speed
7 8 8 9 9 9 10 10 10 10 11 11 11 11 11 12 12 12 12 12 11 11 11 11 11 11 9 9 8 8 8 2 4 5 6 3 6 8 10 10 10 10 9 4 5 7 5 6 7 9 8 3 1 0 1 1 1 2 1 2 4 5 2 4 4 4 1 1 3 2 4 4 4 1 2 1 3 2 4 3 4 5 6 2 3 1 3 9
7 8 8 8 9 10 10 11 11 11 11 11 10 10 10 11 11 12 11 11 11 10 10 9 9 10 8 7 6 7 4 1 2 3 1 5 6 8 9 8 7 7 8 2 5 3 4 7 5 7 5 3 1 0 1 1 1 2 1 1 8 4 5 3 1 2 0 4 3 3 2 5 8 3 1 2 4 4 6 6 2 6 9 7 1 1 7 9
7 8 8 9 9 10 11 11 11 11 11 11 10 10 10 9 10 11 11 11 10 9 8 8 7 8 7 5 5 5 2 2 2 3 3 4 6 8 8 6 3 3 2 1 1 1 0 3 3 4 3 2 3 2 1 1 1 2 2 5 7 6 3 3 2 3 3 1 4 3 4 5 3 4 0 3 7 3 9 9 4 8 14 11 4 3 6 10
8 8 9 10 10 11 11 11 11 11 11 11 11 11 10 10 10 11 11 10 10 9 8 7 7 6 5 3 3 1 2 2 1 3 3 6 6 8 7 4 1 2 1 0 1 1 0 1 1 1 1 1 4 2 0 1 1 2 2 3 2 2 2 1 2 2 3 2 2 2 1 1 5 5 2 2 2 9 11 10 12 14 17 14 7 8 6 11
9 9 10 10 11 11 11 11 11 11 10 11 11 11 11 11 11 10 10 9 8 7 7 6 6 6 4 3 4 1 2 2 1 2 6 10 9 8 6 3 2 1 1 1 1 1 1 1 1 2 1 3 2 2 0 1 1 1 5 3 2 0 1 5 3 4 1 3 2 2 1 5 1 1 5 4 8 12 8 10 12 14 13 10 8 11 8 10
9 9 10 10 10 10 10 11 10 11 11 11 11 11 10 10 10 9 9 8 7 5 4 4 5 5 3 3 2 2 2 0 1 3 8 11 12 11 9 6 3 2 1 3 2 4 5 6 3 2 2 0 1 0 2 1 1 3 4 2 2 3 3 1 2 3 1 1 1 1 4 1 1 3 3 7 15 15 7 4 10 13 14 12 8 7 9 11
9 9 9 10 10 10 10 10 10 11 11 11 12 11 10 10 10 9 8 7 5 3 2 2 1 1 2 2 2 7 3 1 1 8 10 11 12 11 10 5 5 2 2 4 5 4 2 4 1 2 0 1 3 0 1 2 3 2 5 1 4 2 5 4 3 3 2 4 4 3 2 2 1 5 1 4 16 17 12 5 5 8 10 7 6 8 14 14
8 9 9 9 9 10 10 10 10 11 11 11 11 11 10 9 9 8 8 5 3 2 1 1 1 1 1 1 1 2 3 2 6 7 8 11 11 9 7 2 4 1 4 3 2 3 1 2 2 0 0 1 1 1 2 3 2 2 3 1 4 2 4 4 4 3 4 6 5 4 4 6 3 4 5 14 17 12 13 6 8 7 5 5 8 10 10 12
8 8 9 9 9 9 9 10 10 11 11 11 11 11 9 9 8 7 6 4 2 2 2 3 2 2 1 2 3 3 2 3 5 8 7 9 10 9 8 3 4 4 1 3 2 1 1 1 1 1 2 1 1 0 3 3 5 1 2 1 4 5 5 5 4 6 5 3 1 2 7 6 6 6 7 21 19 16 5 7 10 8 9 10 10 11 11 12
8 8 8 8 8 9 9 10 11 11 11 11 11 10 9 8 7 6 4 3 1 1 2 3 3 3 3 3 3 5 3 7 6 4 5 6 8 9 9 4 4 4 4 4 3 3 1 0 1 3 2 1 0 0 0 1 3 0 3 3 5 8 6 4 5 3 1 2 1 3 7 5 3 4 9 5 11 3 4 6 6 6 11 14 11 11 10 11
7 7 8 8 8 9 10 10 10 11 11 11 11 10 8 8 6 5 4 3 1 2 3 3 4 1 2 2 6 2 4 4 1 4 6 5 8 8 5 6 4 3 2 2 2 1 1 2 3 1 1 1 1 1 0 1 0 2 2 5 5 8 6 6 5 7 2 4 1 5 8 4 4 1 11 16 14 2 7 10 8 6 10 12 13 13 12 10
7 7 8 8 9 9 10 10 10 10 10 10 10 10 8 7 6 5 4 3 2 3 4 5 4 2 4 7 6 1 2 4 3 4 5 3 5 3 5 2 1 1 3 2 2 1 1 1 2 0 1 0 2 0 1 1 1 2 3 5 8 7 7 5 3 4 2 3 0 2 7 4 1 5 13 14 8 7 6 11 14 11 10 10 11 10 9 12
7 7 8 9 10 10 10 10 10 10 10 10 10 9 8 6 7 5 4 1 7 4 4 5 3 3 2 5 1 5 3 3 3 7 5 1 4 2 0 0 1 0 1 1 1 2 0 1 2 4 0 2 1 1 1 1 2 1 2 1 8 9 6 1 2 2 0 2 1 2 8 10 8 13 13 11 7 7 9 10 11 10 8 9 9 9 10 9
7 8 9 9 10 10 10 10 10 10 9 9 9 7 6 6 7 6 5 6 2 4 5 5 3 3 3 0 6 4 3 0 3 6 5 5 6 8 7 6 3 1 1 0 3 2 2 3 8 4 1 3 2 2 2 5 4 2 3 4 1 7 6 7 6 5 1 1 2 3 2 12 16 18 7 8 5 5 10 15 14 12 10 9 8 8 10 11
7 8 9 9 10 10 10 10 10 8 7 5 5 5 5 6 6 7 8 8 7 3 4 5 1 1 3 1 4 7 4 1 6 5 3 6 3 6 6 7 8 6 2 1 1 1 2 3 3 4 1 1 1 2 3 3 5 3 6 5 5 3 9 14 7 1 2 2 3 2 2 9 16 20 18 2 3 6 14 18 16 12 11 9 8 9 9 12
6 7 8 9 9 10 9 9 8 6 6 6 5 5 5 4 6 5 4 4 6 7 2 2 4 6 4 2 1 4 2 3 5 4 2 1 1 3 4 5 5 3 5 1 2 1 4 5 6 1 2 6 9 4 5 6 5 5 5 4 6 3 6 11 0 3 3 2 1 2 7 8 11 16 20 19 9 8 10 15 15 14 11 9 8 8 8 9
6 7 8 9 9 8 8 7 6 7 9 8 7 4 4 3 7 6 4 3 2 1 2 0 1 1 2 3 2 3 3 3 4 3 6 1 3 2 4 5 1 7 8 3 3 1 4 4 2 1 5 6 2 1 3 6 5 4 2 1 2 3 7 6 9 2 6 1 3 1 2 9 14 18 19 21 15 10 9 10 12 12 9 8 7 7 8 8
6 7 8 8 8 7 7 6 7 9 10 7 1 4 3 8 9 8 6 5 2 4 2 2 2 2 1 5 2 5 3 5 6 6 4 8 1 1 1 1 2 5 2 1 4 3 3 1 5 1 4 6 7 8 9 4 3 5 6 6 7 4 4 7 7 6 8 3 2 3 5 14 14 15 16 14 11 7 10 9 8 9 9 10 8 7 7 7
6 7 8 8 8 7 5 6 8 9 11 6 5 2 2 4 4 5 5 5 3 3 3 6 6 4 1 5 6 6 4 5 4 4 11 11 3 1 0 1 2 2 3 4 2 3 5 4 6 7 7 8 7 4 4 1 2 3 4 4 3 4 8 9 6 4 5 10 10 2 7 13 16 16 16 15 12 10 9 9 9 8 7 7 8 8 6 5
6 7 8 7 7 6 5 6 6 8 10 7 6 2 4 3 4 3 8 7 5 4 3 0 0 1 2 5 6 8 3 3 2 3 6 3 2 4 2 2 3 8 5 3 7 3 2 8 6 2 4 4 5 3 1 1 3 1 1 1 7 4 9 6 5 4 3 7 4 4 6 9 14 13 12 11 11 8 11 11 9 7 7 7 8 7 7 5
6 7 7 8 7 6 6 6 6 8 7 3 2 4 1 1 2 3 1 1 1 0 1 1 1 0 1 2 4 6 4 4 1 8 8 7 2 2 6 5 6 8 7 3 1 2 8 8 6 3 3 4 5 2 1 1 1 2 4 2 7 4 7 9 5 2 3 6 6 1 6 14 13 11 9 8 6 9 8 10 9 7 6 7 8 9 7 3
6 7 7 7 7 5 5 6 7 8 5 3 5 5 1 2 0 0 2 2 2 1 2 2 2 2 3 2 3 2 2 4 16 16 8 10 8 7 5 7 3 4 7 6 4 6 7 8 4 4 3 3 2 1 1 2 1 0 1 3 4 6 6 11 3 4 5 4 9 5 11 13 13 13 11 4 5 5 5 5 6 5 4 6 6 6 5 7
6 6 6 6 5 5 6 7 8 6 1 3 4 4 3 0 2 1 2 3 2 1 2 2 4 2 4 4 1 4 6 9 3 11 11 8 7 5 1 5 6 1 4 6 9 3 8 5 3 2 0 2 2 4 3 3 2 2 5 5 7 5 7 9 3 6 16 1 4 5 9 11 9 6 8 2 2 5 3 6 4 2 3 5 3 1 3 5
6 6 6 6 5 6 6 7 4 4 4 5 5 3 0 1 2 1 1 0 2 1 1 0 1 1 3 4 3 4 2 1 1 13 7 5 4 1 3 2 4 5 7 5 7 9 4 1 0 2 3 1 1 3 5 7 9 4 3 1 3 6 4 4 8 9 9 3 2 7 9 8 3 8 9 9 8 6 8 9 5 5 2 1 0 2 1 2
6 6 5 5 5 5 6 5 5 1 2 4 2 0 2 3 2 1 1 1 5 3 2 0 3 2 3 1 4 1 0 0 2 3 3 4 7 4 1 0 3 5 2 0 4 7 3 1 1 3 2 5 3 4 2 4 8 8 3 2 3 4 6 6 7 9 8 3 3 6 5 7 4 6 5 8 9 10 5 6 4 2 1 2 4 0 1 3
5 5 5 4 4 5 5 2 0 2 1 1 1 0 3 2 1 0 6 4 2 4 5 6 0 4 2 4 5 1 1 3 2 3 1 4 3 1 1 4 1 6 4 2 2 2 1 2 3 2 1 4 5 2 1 2 3 2 5 3 2 4 3 5 6 4 5 3 3 3 3 8 6 9 4 3 8 10 7 4 6 7 2 1 3 3 3 4
5 5 5 4 4 6 2 0 0 3 0 1 0 2 2 1 0 3 0 4 6 2 3 3 1 2 3 3 4 1 4 4 6 4 6 6 3 1 5 4 4 1 1 1 4 2 3 4 6 4 5 6 6 8 1 1 2 3 2 0 5 6 7 6 1 2 5 2 5 2 3 2 8 10 3 7 5 6 6 6 7 7 8 9 5 4 3 3
5 4 4 3 4 6 1 1 1 0 1 0 1 3 2 1 1 1 5 3 3 3 4 5 1 3 6 8 9 6 3 5 3 5 6 7 2 4 9 1 2 3 4 4 4 4 2 5 4 5 4 5 5 3 4 0 1 5 4 2 9 7 6 3 2 2 2 1 4 4 1 1 4 10 10 5 8 6 7 6 7 8 9 7 8 9 8 7
4 4 3 2 5 8 4 1 1 1 1 1 2 2 2 1 3 5 4 4 2 2 4 1 2 3 10 7 8 3 2 4 2 3 9 5 11 2 5 4 2 0 2 5 3 3 2 1 1 1 2 4 5 5 2 4 2 5 3 5 1 1 0 1 1 0 2 2 3 1 1 1 9 9 9 2 1 5 6 9 8 9 8 10 10 11 9 6
4 3 2 3 4 2 2 3 2 1 1 1 1 2 1 2 2 2 4 4 1 3 2 3 4 6 4 5 4 8 7 5 1 6 6 4 14 9 3 1 1 2 5 5 6 3 2 4 3 2 0 1 4 5 3 4 5 6 4 4 4 3 3 2 5 1 2 1 4 2 1 4 5 9 8 2 5 2 7 8 9 11 9 8 8 9 9 7
2 3 0 4 1 1 1 1 2 2 1 1 1 2 3 8 4 5 4 1 1 1 3 4 3 5 6 8 6 6 2 3 7 5 5 4 10 4 4 2 5 5 5 7 5 10 3 1 0 2 1 2 1 7 1 0 1 4 4 4 8 3 8 2 5 3 2 7 5 4 2 2 4 8 8 7 6 2 2 8 13 14 12 10 9 8 8 7
6 9 6 5 1 1 2 2 1 2 2 0 1 5 3 0 8 9 1 5 1 4 2 5 2 1 5 2 5 7 4 6 3 5 5 5 8 15 13 8 5 8 9 9 10 8 1 0 1 6 3 2 2 2 8 3 2 9 6 9 9 7 8 7 8 8 1 5 5 3 4 6 6 10 11 12 9 9 2 4 10 10 11 12 13 13 10 10
10 12 12 6 2 3 0 1 3 2 1 1 5 3 6 8 5 3 2 5 0 1 3 2 5 5 6 2 7 5 2 6 6 5 0 2 7 2 1 8 4 2 1 2 3 8 8 4 3 5 2 1 1 7 8 8 4 9 5 2 5 4 4 3 6 2 5 11 5 1 1 4 6 7 8 8 8 6 6 8 6 5 9 14 15 15 18 17
3 4 7 1 3 2 1 3 3 3 2 4 6 9 9 12 1 0 0 1 2 2 2 2 6 4 4 6 4 3 5 1 4 4 6 4 5 7 6 3 4 6 3 0 5 1 8 8 3 3 2 1 2 1 1 6 5 4 3 1 2 2 0 5 2 5 9 10 17 1 2 5 5 6 3 4 6 7 9 10 9 15 20 20 17 20 22 22
4 8 5 0 2 0 2 3 4 2 5 8 13 8 11 2 1 1 2 2 2 3 2 2 3 3 6 4 3 2 1 2 3 2 7 5 6 2 5 6 6 2 0 2 1 1 2 6 12 2 4 2 3 1 1 0 2 1 2 4 4 4 5 4 6 3 4 9 11 3 4 5 6 4 7 8 11 17 19 22 23 24 21 21 20 20 19 19
3 2 2 3 4 5 2 3 3 2 8 10 13 11 7 2 1 1 0 1 0 1 7 5 3 7 3 5 2 5 7 1 6 3 2 3 1 2 1 1 3 3 3 2 1 1 4 4 3 10 1 4 2 2 1 1 1 2 2 1 1 3 5 2 4 2 2 1 10 1 9 6 6 10 8 16 22 23 21 21 22 22 20 19 18 19 19 19
2 4 7 4 5 7 1 3 3 4 9 12 13 4 2 0 1 2 2 0 1 0 2 4 5 3 4 4 3 7 5 2 2 3 4 1 1 0 2 2 1 2 1 2 4 3 0 9 10 2 8 2 0 1 1 2 1 2 2 4 2 2 2 2 3 5 3 4 9 4 11 13 8 9 15 25 22 23 22 20 18 19 19 20 17 17 17 17
1 2 1 5 5 5 1 2 3 3 6 16 10 7 0 2 0 1 0 0 0 0 4 3 0 5 1 0 6 4 7 5 9 4 1 2 2 1 2 1 2 3 1 1 1 3 1 6 7 3 5 9 3 2 4 1 0 4 4 1 3 4 5 3 3 4 5 6 7 7 13 10 2 3 14 19 20 22 22 20 20 22 21 19 18 18 18 17
3 3 3 4 9 5 0 2 9 8 12 14 0 8 1 0 1 1 3 5 0 1 3 1 0 1 1 0 2 1 2 3 3 3 3 2 4 2 1 2 1 3 3 1 0 1 1 2 8 2 1 4 4 3 7 4 2 1 2 2 1 2 6 1 4 2 2 9 3 7 6 6 7 3 8 14 15 17 19 20 19 19 18 18 17 18 18 18
2 3 4 2 7 4 4 3 12 10 11 11 1 3 2 1 1 2 1 2 1 2 1 0 0 1 2 1 1 3 2 1 1 3 2 1 1 2 1 2 1 5 3 0 1 0 2 1 4 7 3 3 6 1 4 4 6 5 3 3 2 2 4 3 2 2 6 6 5 5 7 2 4 5 11 14 14 15 15 17 17 16 17 17 18 17 17 18
1 5 1 5 13 6 4 17 15 11 8 0 2 3 0 0 0 0 2 2 1 1 0 0 0 1 1 3 2 0 1 2 1 1 0 2 1 4 1 1 3 4 3 2 1 0 1 1 4 8 10 5 7 4 4 1 1 2 3 5 6 4 10 7 13 0 1 2 5 3 11 1 5 3 8 10 12 14 15 14 17 15 17 17 17 18 17 16
3 3 4 10 13 4 11 12 5 1 6 4 2 1 1 1 1 1 1 1 2 1 2 2 1 1 1 0 1 2 2 3 1 1 1 1 2 2 1 5 4 1 1 1 0 1 1 1 0 7 6 11 11 14 1 1 3 4 5 5 1 1 2 1 11 9 5 5 2 5 8 2 4 4 10 11 14 15 15 14 17 16 16 17 17 17 15 13
6 2 2 8 6 5 17 8 3 7 5 0 1 2 2 1 2 1 2 2 1 1 1 3 1 2 1 0 1 1 0 1 1 2 1 2 3 4 3 5 5 4 2 1 0 1 4 0 3 8 9 8 10 7 3 1 2 1 2 1 1 6 5 6 8 6 6 11 8 5 6 5 3 6 11 11 14 12 16 15 19 15 15 17 20 20 18 15
3 4 5 6 6 5 11 6 3 2 3 1 3 1 2 1 2 4 2 2 2 3 1 1 2 1 1 1 0 2 1 2 2 1 4 0 3 2 3 4 5 0 1 0 1 2 2 2 3 6 8 13 11 2 1 2 2 0 5 1 2 5 8 6 4 1 4 10 10 8 12 3 12 14 17 26 26 28 25 24 21 19 17 18 19 18 17 13
3 1 2 7 13 11 7 3 8 7 1 2 1 4 3 2 2 1 0 2 0 0 0 1 1 2 1 0 0 0 1 1 3 0 0 2 4 1 3 3 1 1 1 2 1 1 1 4 1 2 6 11 14 15 16 17 12 7 5 11 13 14 16 12 7 6 6 4 12 6 8 9 13 14 20 24 23 26 24 23 22 19 20 19 18 19 18 15
3 5 7 8 9 8 7 2 6 7 6 2 4 1 1 2 1 2 1 0 0 0 1 1 1 0 1 3 3 2 2 1 1 3 3 3 4 2 2 2 2 1 2 4 3 1 1 1 3 6 5 7 11 10 7 4 9 11 14 14 14 12 12 6 4 3 5 10 12 2 5 15 16 17 17 22 20 20 23 23 21 23 23 21 20 20 20 16
2 6 1 1 4 10 5 6 3 4 2 2 3 0 6 1 2 1 2 1 1 1 1 3 3 3 3 4 3 2 2 4 3 1 2 5 3 4 1 3 1 1 3 2 2 1 1 3 7 9 9 13 12 13 11 6 8 6 11 11 12 14 10 8 8 5 10 10 11 5 16 14 16 18 22 22 21 21 21 22 23 20 20 19 20 21 22 16
5 1 2 0 4 1 5 6 4 6 4 4 1 1 2 3 5 1 3 1 1 1 0 0 6 3 0 0 0 2 6 6 2 3 5 1 3 7 6 5 5 4 3 2 1 1 0 2 7 4 9 8 12 12 11 7 2 6 9 11 13 11 14 14 10 6 9 4 11 12 14 17 16 17 18 17 17 21 20 19 18 19 19 20 22 22 19 14
5 3 1 1 4 1 2 2 3 7 9 4 2 5 3 4 4 1 0 4 2 4 4 2 6 6 4 2 1 1 1 5 5 3 1 5 2 5 4 2 2 4 2 1 2 1 0 5 5 3 11 10 7 8 7 3 1 10 8 12 12 14 12 14 14 11 9 11 10 12 15 16 12 13 14 17 16 15 16 16 17 19 20 21 22 20 15 17
1 2 1 5 7 5 1 1 2 6 8 3 4 3 1 1 2 2 1 1 2 3 2 2 5 6 4 1 2 1 2 4 5 5 1 3 9 1 3 4 4 2 4 1 1 0 2 7 9 6 9 16 11 2 3 2 5 10 10 9 12 14 16 18 15 13 10 10 10 12 16 14 14 18 20 21 18 20 22 23 23 21 22 25 23 18 16 19
2 1 6 8 7 4 2 4 3 4 4 8 6 1 3 1 1 1 0 1 1 1 1 1 4 6 0 0 3 5 6 4 6 10 6 2 7 3 0 2 4 6 5 4 2 4 2 6 4 5 11 15 10 13 15 12 10 10 13 19 18 17 15 16 13 12 9 10 11 11 14 14 16 20 21 21 22 23 25 24 22 21 24 25 20 16 18 20
3 1 5 7 7 3 3 1 2 4 6 1 1 1 1 1 2 1 1 2 2 1 2 2 2 1 4 3 5 4 4 4 8 7 4 6 5 5 3 3 3 1 6 2 1 1 1 1 5 4 10 13 15 14 18 16 2 2 12 15 14 13 14 17 14 13 11 7 7 11 13 14 19 20 22 20 21 23 23 21 22 25 25 22 18 18 21 20
Wind_Direction
302 310 314 320 324 319 313 316 315 317 318 323 325 326 325 323 323 322 319 319 317 318 325 321 316 317 337 346 343 329 342 61 22 24 40 240 230 258 289 297 300 307 319 333 351 31 341 358 353 347 5 36 280 124 243 53 102 64 186 129 267 220 208 222 214 191 207 261 280 251 225 190 265 299 264 35 254 228 268 252 284 297 263 228 273 344 126 139
307 311 314 318 316 312 313 314 317 319 322 323 324 317 314 315 315 309 307 307 309 312 312 314 312 317 338 347 331 332 10 49 46 47 75 262 268 281 290 293 296 313 311 12 32 48 15 341 336 7 20 6 316 165 41 244 88 141 116 116 241 193 236 165 207 230 179 264 241 239 241 193 238 150 270 212 275 247 263 257 238 270 274 276 310 81 136 151
308 311 314 316 315 315 316 318 319 321 324 319 314 310 307 305 301 298 299 303 311 309 312 310 317 321 330 350 326 331 351 14 45 0 300 281 268 284 289 284 295 350 55 343 324 76 245 296 331 4 348 314 354 229 29 258 31 238 139 254 245 217 241 229 212 240 211 267 288 279 266 183 249 168 74 212 253 301 237 242 251 241 251 244 220 187 174 165
316 320 322 323 321 321 321 322 324 324 320 317 311 312 310 306 302 303 305 310 312 316 317 328 324 324 336 305 272 319 70 60 24 272 269 291 301 293 285 273 236 89 72 151 172 2 243 322 25 126 321 38 294 16 156 282 74 282 90 199 239 225 338 274 188 230 245 190 270 212 293 251 260 223 168 232 317 259 248 230 208 221 232 235 194 195 191 183
326 328 328 325 323 323 323 325 325 322 317 312 312 309 307 304 305 302 307 308 311 325 336 329 339 353 354 325 330 93 72 47 276 259 264 317 323 308 302 280 155 86 72 247 352 124 335 16 44 35 79 274 340 8 270 332 157 125 214 204 206 335 266 256 228 225 251 206 227 290 260 240 284 112 227 172 227 258 219 235 214 230 235 231 198 204 191 194
330 328 324 322 319 320 324 324 323 319 313 310 308 305 305 303 300 304 306 307 318 336 333 348 3 358 3 348 17 68 78 110 291 302 308 320 327 323 335 334 119 89 66 12 40 328 34 350 31 13 350 53 302 135 277 257 13 271 313 281 233 229 254 257 221 244 167 303 245 277 230 311 235 263 234 201 222 246 218 201 202 221 233 230 215 182 200 202
330 326 319 317 318 322 324 324 318 313 310 307 306 306 303 304 298 297 298 302 325 333 321 9 311 312 297 359 50 79 105 242 352 280 319 329 324 337 336 5 94 36 37 12 9 20 0 352 44 245 85 2 303 206 281 315 356 178 248 340 304 201 230 225 243 224 235 185 245 215 344 282 295 288 247 227 246 245 262 244 229 227 232 236 225 196 202 205
326 321 318 315 321 324 322 316 312 308 306 304 301 300 300 297 296 295 293 302 306 262 169 144 218 231 327 44 61 351 44 305 280 275 317 337 331 337 331 83 53 33 27 16 302 330 33 19 357 188 31 203 239 149 307 330 11 200 284 291 277 337 254 280 256 269 257 250 254 302 287 260 209 241 349 274 266 257 255 249 252 251 260 254 226 220 211 214
323 320 318 320 325 323 315 310 306 304 301 299 297 297 301 298 299 293 278 277 255 209 189 148 186 135 319 87 100 56 327 244 226 287 340 338 327 334 27 358 4 50 318 33 52 234 143 278 5 134 274 303 256 67 333 36 322 159 236 319 299 290 303 287 304 265 254 271 256 300 266 284 265 274 266 256 270 271 271 247 238 238 246 243 231 226 211 213
320 318 320 324 320 313 308 304 301 297 298 299 299 298 298 299 305 316 297 268 251 129 153 166 155 148 60 77 41 57 271 231 286 292 339 331 330 4 8 352 15 39 19 337 45 53 70 229 180 257 165 105 117 347 219 99 242 165 288 265 284 283 327 294 230 278 291 223 255 253 282 284 303 22 286 272 252 309 300 270 262 232 241 242 235 233 225 214
315 316 318 317 312 307 304 300 300 300 300 301 299 298 295 302 306 297 315 299 17 75 126 157 160 125 49 74 91 66 242 46 261 326 329 340 355 12 324 331 325 48 65 5 52 215 175 199 207 108 67 243 50 302 104 235 47 294 256 315 313 324 276 262 287 278 319 306 209 223 267 268 288 136 239 266 278 10 323 297 287 253 245 246 242 238 235 226
313 311 313 313 308 304 301 304 304 302 298 297 294 293 295 292 288 275 287 289 153 137 146 156 165 88 76 72 86 102 213 229 334 311 332 351 333 290 259 206 346 98 76 27 318 284 218 241 123 54 251 334 316 315 352 284 34 287 19 334 304 343 356 355 324 314 163 262 220 187 292 314 265 218 243 258 290 335 322 287 284 274 257 255 258 250 242 233
308 313 315 311 308 306 307 308 307 304 299 294 292 290 291 278 267 265 252 333 147 144 155 147 98 83 90 33 248 250 293 312 341 336 338 11 307 219 249 163 351 228 140 109 299 317 30 158 105 76 230 95 198 40 216 61 299 306 38 45 337 353 345 311 357 8 111 257 36 339 329 303 267 239 261 282 308 325 302 281 277 279 273 260 257 256 252 248
310 316 316 309 307 311 311 309 306 301 299 290 288 296 306 286 273 268 257 256 242 148 157 171 112 67 82 238 273 268 289 234 335 7 334 323 20 315 343 344 1 68 193 179 248 200 94 74 89 116 126 70 342 301 34 332 23 333 280 65 54 355 298 297 351 295 324 315 35 72 254 291 295 297 265 255 302 302 294 292 287 282 278 272 260 256 251 251
310 311 309 306 308 310 311 310 307 304 308 314 312 311 318 319 307 308 323 336 359 146 213 125 72 66 50 278 260 290 263 47 9 322 318 4 359 333 337 341 330 334 271 184 293 45 103 71 65 38 340 339 358 38 357 24 2 359 44 319 324 60 284 314 338 199 256 323 56 88 236 253 291 294 304 247 290 300 295 293 293 288 281 271 264 256 253 252
304 303 303 306 307 310 312 312 309 324 336 327 324 316 318 313 300 291 280 232 293 354 340 85 352 107 103 30 290 341 36 25 330 307 287 43 339 265 269 290 285 338 22 321 56 69 41 85 64 167 350 1 38 44 15 32 339 4 65 292 309 328 278 334 299 317 342 302 337 168 261 303 301 300 310 311 306 296 284 290 295 296 288 278 266 256 253 258
293 296 298 303 310 314 310 310 325 344 343 334 333 331 333 340 348 303 262 260 325 290 61 1 58 71 77 251 316 21 302 282 288 344 325 304 271 240 351 5 346 341 347 343 19 81 347 64 290 33 46 85 287 34 52 20 334 315 33 295 248 291 330 313 311 28 356 36 285 7 220 252 264 290 299 306 319 323 302 293 297 301 300 291 275 263 257 252
287 292 301 308 313 316 304 321 354 354 337 324 329 322 333 336 4 26 15 26 352 81 81 77 98 45 324 8 27 301 311 300 337 296 305 321 135 28 45 325 320 341 22 23 0 66 331 49 25 160 13 11 18 27 65 353 295 303 334 352 329 299 226 255 324 302 22 3 290 291 263 274 281 289 295 295 309 319 311 313 301 299 307 307 301 282 264 259
291 298 303 309 311 306 319 350 5 352 342 337 6 322 325 38 41 71 57 345 41 349 26 326 28 90 129 290 296 292 292 247 305 22 332 346 340 25 216 173 49 3 2 50 300 42 1 48 25 39 8 347 354 59 111 214 167 244 242 257 247 312 314 311 261 297 44 330 319 268 276 299 301 303 303 314 326 330 313 332 347 346 328 317 309 299 290 269
296 300 306 311 309 319 346 3 359 1 3 21 6 16 12 20 5 344 347 33 76 113 171 202 177 243 316 344 330 294 276 14 55 295 330 326 335 1 35 60 356 54 51 20 310 46 96 71 60 1 306 272 271 214 208 228 189 236 154 300 282 263 282 267 272 245 356 342 254 266 278 286 291 290 292 297 320 330 354 350 338 344 341 341 340 324 306 300
297 308 313 313 315 328 357 357 354 7 32 92 68 61 86 181 77 47 299 336 212 110 37 278 171 153 257 279 302 355 15 328 127 356 358 301 119 58 338 17 22 29 346 290 203 320 68 57 8 256 246 254 266 259 182 8 114 220 284 312 305 301 291 293 288 324 354 51 284 12 319 303 299 300 299 308 341 350 351 335 335 331 334 0 7 1 10 343
308 312 319 321 327 338 345 349 357 9 68 86 70 101 142 190 168 200 108 52 9 5 40 341 340 357 331 247 258 152 122 2 6 359 342 27 338 64 321 77 65 45 322 355 25 22 37 59 296 260 245 269 314 29 54 202 272 343 7 288 334 307 249 289 296 312 341 20 265 327 334 300 294 303 307 305 325 286 357 307 283 290 340 16 14 9 22 37
310 315 315 320 321 341 350 344 356 26 40 42 72 86 119 201 335 281 103 122 81 328 54 6 20 17 345 295 319 67 45 42 304 347 348 7 355 72 358 45 20 346 348 23 75 31 37 332 281 256 20 0 335 19 44 37 98 15 348 32 329 270 25 322 268 1 327 150 283 319 296 288 311 303 324 223 336 291 295 328 341 347 88 69 40 31 49 43
307 315 320 322 336 344 330 330 341 46 27 114 101 119 269 16 28 103 84 183 136 328 72 262 99 90 13 21 338 52 66 338 50 343 342 21 14 281 69 30 33 43 12 348 99 94 137 285 266 13 34 45 331 347 45 16 347 323 183 258 296 327 318 184 293 327 284 336 188 331 334 319 330 2 328 321 330 351 345 348 17 1 350 320 277 36 10 122
308 315 319 322 335 309 304 342 39 47 165 53 38 210 353 0 56 60 98 358 17 3 188 54 102 38 317 293 342 8 236 262 36 232 271 43 332 35 340 174 91 4 351 234 75 72 1 272 268 355 26 29 75 16 38 36 352 331 237 215 256 251 278 279 292 328 9 343 14 39 357 301 288 311 248 293 333 332 325 357 346 308 325 65 79 328 268 245
295 300 301 310 303 312 300 34 342 166 87 113 209 9 357 13 357 97 94 74 68 275 356 15 269 350 155 336 6 350 48 49 269 304 297 342 199 97 29 14 61 4 332 88 101 135 168 349 58 323 85 24 53 80 259 93 333 49 304 187 259 278 259 279 313 25 349 12 286 66 119 284 335 320 293 288 321 306 317 356 325 306 281 219 203 220 222 209
295 294 294 299 325 319 33 243 189 107 324 318 262 316 321 345 167 125 45 6 46 317 15 269 50 357 65 328 329 65 44 300 311 352 12 4 28 334 99 323 9 283 148 142 40 327 8 337 11 42 49 31 13 13 299 103 60 305 244 124 317 319 311 299 315 152 231 264 300 41 118 272 314 298 269 329 320 289 325 333 318 306 308 310 300 283 281 288
293 295 298 335 12 51 171 118 50 139 182 228 347 304 312 255 147 41 78 65 355 319 20 317 38 320 59 312 13 81 168 281 30 336 12 303 22 350 77 22 113 353 326 78 99 262 90 323 15 352 33 26 10 274 283 135 206 239 271 333 303 283 274 246 166 214 236 48 313 334 328 22 261 270 304 1 338 331 318 319 323 301 296 292 289 285 273 259
287 284 314 1 56 83 77 104 107 151 238 275 299 330 313 51 88 111 121 95 273 57 205 41 267 23 340 359 36 24 331 4 85 312 324 332 23 181 40 11 137 168 356 93 140 296 311 168 260 117 85 346 264 280 224 171 340 282 265 296 273 86 109 149 119 91 333 60 293 274 270 21 285 286 309 350 282 301 308 311 308 311 287 289 291 292 301 309
290 291 343 19 62 36 0 41 56 211 296 265 317 309 47 52 34 37 20 58 310 334 8 274 56 301 16 7 331 4 30 348 66 313 21 62 325 21 100 95 118 58 12 5 80 217 270 311 162 102 164 233 293 281 198 201 225 297 11 349 335 31 36 18 69 84 53 34 252 216 281 111 301 280 261 308 316 335 321 319 312 317 314 296 286 285 288 304
279 288 315 74 77 206 113 26 272 199 199 321 281 52 72 38 96 107 65 248 39 297 2 13 332 11 24 36 350 335 17 349 345 26 352 355 5 39 18 13 24 46 23 4 18 347 354 343 112 258 265 303 96 320 4 235 232 34 17 349 343 350 358 44 346 29 68 282 261 216 170 125 267 293 287 224 265 288 235 297 307 310 305 304 313 316 311 292
107 82 88 78 144 74 85 249 207 148 133 185 76 58 72 51 13 60 158 321 78 323 51 299 314 21 352 307 38 344 344 326 347 34 31 15 26 29 7 57 334 14 11 16 334 358 4 145 291 315 222 141 299 11 314 15 353 19 12 19 44 309 22 336 11 356 268 248 255 173 29 348 225 221 259 296 297 304 268 250 288 297 303 317 326 324 314 293
105 108 83 69 93 38 339 148 109 113 127 72 67 55 56 95 55 302 314 326 91 344 291 132 265 354 307 46 354 333 256 41 312 17 46 4 77 50 15 64 336 108 320 306 319 7 288 296 322 306 340 222 88 40 328 357 341 5 25 70 57 7 25 287 282 218 296 284 243 139 212 238 263 289 250 244 275 276 314 313 310 308 309 322 334 339 338 330
299 239 69 338 93 98 152 118 114 129 87 46 70 42 69 59 117 320 330 276 289 353 334 8 319 347 31 66 329 341 7 268 27 332 37 340 46 23 338 5 49 14 77 241 57 317 19 346 304 29 340 10 57 160 290 222 304 276 182 136 210 140 270 296 262 297 282 274 303 84 97 234 342 246 294 246 278 322 349 348 344 1 6 7 6 15 13 7
100 69 103 49 35 9 130 135 116 113 88 78 58 79 87 158 223 227 292 300 304 307 282 329 326 35 339 17 317 347 123 302 35 14 15 37 3 34 348 333 342 87 153 83 293 65 280 234 262 233 242 40 284 263 88 347 341 273 181 94 58 273 128 212 212 205 282 313 315 309 207 203 241 307 331 5 7 18 13 18 21 18 13 11 13 11 9 6
36 342 63 26 25 342 119 94 123 84 87 75 80 46 75 163 126 146 251 182 304 5 309 349 53 38 319 323 302 25 305 50 327 61 350 76 220 40 259 234 9 8 31 82 222 5 9 309 268 319 69 169 215 127 300 154 355 278 39 290 271 181 149 281 325 258 315 358 257 207 305 305 311 334 348 18 18 14 15 15 18 14 8 8 11 5 2 0
30 341 40 329 6 340 22 127 97 92 78 86 88 66 194 301 191 177 310 60 273 195 35 83 329 56 343 321 284 338 310 28 342 67 337 334 343 306 339 305 171 35 93 132 320 196 180 271 305 60 311 341 76 180 287 223 192 56 341 257 277 112 119 123 246 328 4 248 274 25 286 307 13 316 14 18 8 7 11 9 4 10 6 7 3 359 357 355
60 55 127 31 327 319 76 160 104 48 80 76 63 120 218 85 220 189 204 45 82 299 77 84 275 103 270 86 324 335 317 78 323 40 273 0 291 106 83 321 300 90 8 328 137 289 98 328 292 250 252 273 332 335 338 315 34 193 246 268 16 317 353 320 83 319 319 294 282 299 301 310 2 331 8 14 9 358 1 359 3 2 1 357 354 351 350 352
60 78 19 334 339 1 297 107 68 60 70 72 74 86 270 179 211 177 209 155 163 124 77 292 150 345 117 110 255 314 330 30 323 358 57 343 34 129 86 153 306 125 16 95 77 266 10 268 293 296 187 292 335 49 326 292 325 353 350 337 319 130 219 312 217 197 138 267 359 290 341 307 25 15 9 20 10 359 357 1 356 354 352 351 349 346 345 347
20 37 9 318 358 337 339 57 62 45 61 80 176 93 205 100 226 260 188 170 253 90 0 67 338 355 357 267 88 342 296 44 18 290 70 292 304 298 100 345 206 315 47 339 179 296 294 128 265 278 295 2 350 327 281 312 315 328 25 320 338 272 220 167 270 181 256 256 231 288 293 85 39 341 26 13 5 358 358 354 350 348 344 344 343 342 341 343
59 101 263 316 347 336 6 42 39 28 84 240 79 135 18 194 266 297 346 15 334 319 138 174 132 54 265 12 348 66 305 345 322 325 146 303 98 337 204 164 160 328 343 49 43 345 343 357 234 316 341 345 274 225 230 227 174 201 170 244 221 309 322 337 292 64 274 270 266 284 273 257 40 353 25 18 360 353 356 347 345 341 340 341 339 339 339 337
79 45 288 322 342 25 84 57 12 98 87 67 72 114 106 91 50 342 25 9 57 344 16 98 55 105 70 253 237 310 356 302 263 347 259 178 262 175 289 74 119 112 84 280 27 259 131 171 135 291 253 274 282 285 108 221 174 196 149 260 166 121 112 206 284 292 327 243 162 243 292 242 205 35 13 10 2 348 345 343 338 334 334 339 336 333 330 329
49 125 259 326 350 57 73 52 331 37 59 100 277 28 23 43 88 338 61 351 6 61 358 50 299 23 192 328 320 331 109 286 193 280 247 265 265 222 201 141 139 67 113 308 14 329 75 90 349 263 279 263 259 301 73 64 157 16 296 161 38 297 274 255 251 285 289 291 299 291 238 238 189 40 9 1 349 338 342 345 333 329 330 332 335 333 332 330
133 74 346 340 18 98 80 113 95 19 68 326 60 66 30 132 67 5 35 331 66 350 69 350 325 102 285 93 121 343 295 0 234 358 333 210 276 104 170 160 171 161 149 300 90 297 3 291 109 322 342 325 334 353 318 204 82 201 289 304 74 352 348 284 273 73 264 269 266 287 281 290 351 354 357 357 351 348 342 340 337 330 331 329 330 329 326 325
100 322 33 318 10 46 95 176 122 133 138 101 65 30 352 27 57 117 129 17 326 132 80 355 206 267 328 288 307 265 295 116 300 297 65 247 255 39 309 121 172 167 28 352 142 316 150 245 88 338 323 326 325 334 330 330 334 319 309 354 13 17 346 347 330 323 290 328 349 308 293 320 321 353 355 354 347 339 334 328 327 325 324 329 325 326 326 325
24 92 313 1 16 36 64 52 92 117 115 115 48 314 88 57 27 356 51 94 166 284 112 248 294 99 9 31 12 357 330 321 165 286 19 297 304 321 203 144 142 135 79 95 19 18 217 274 178 170 174 227 259 271 288 25 325 319 331 11 359 9 6 353 303 335 342 313 298 258 320 324 329 349 349 342 337 329 325 319 316 324 323 322 325 325 325 323
137 76 57 41 335 50 59 23 37 45 104 159 92 315 21 23 255 353 203 48 6 81 355 65 350 44 326 45 7 323 255 308 328 339 243 277 258 259 41 135 106 317 129 56 338 74 53 321 237 209 218 231 249 275 297 349 299 343 24 1 5 7 7 26 42 315 296 299 293 23 335 324 323 339 342 333 331 322 315 317 320 316 319 320 323 321 317 317
72 239 97 203 119 11 33 3 44 70 12 72 106 85 36 20 17 37 323 80 279 309 125 315 43 74 180 179 32 347 334 325 352 289 329 227 330 320 351 12 41 356 49 357 345 80 129 263 291 134 246 239 269 278 287 301 34 72 38 22 14 356 8 9 342 313 328 301 292 312 324 323 319 330 324 316 315 315 307 301 303 308 315 322 321 318 313 317
109 135 133 340 81 272 141 168 89 90 54 54 97 62 36 69 59 227 172 318 21 347 41 19 328 332 315 285 152 279 291 17 319 281 175 299 351 327 333 349 74 4 36 16 339 197 40 253 275 215 294 294 275 254 264 250 101 65 45 25 12 11 7 355 337 320 297 276 275 306 322 311 323 325 312 314 303 289 304 305 306 316 319 319 316 312 315 323
167 113 54 12 85 107 38 46 77 54 64 11 87 337 117 24 49 338 0 57 5 330 28 71 299 319 304 235 188 285 237 209 244 284 274 35 309 124 242 213 281 332 29 335 14 287 84 286 7 332 337 312 324 340 118 138 126 85 46 29 9 7 2 358 344 328 294 284 287 313 322 319 328 328 325 325 326 324 323 323 323 323 324 322 317 312 318 322
164 152 151 115 60 342 17 24 46 75 63 352 66 310 72 323 142 207 309 237 137 260 340 284 287 305 311 315 213 239 250 227 234 234 241 226 265 227 59 299 70 320 358 354 18 322 43 271 12 14 339 308 325 335 328 340 110 87 43 19 7 2 1 346 328 309 281 282 297 313 329 326 320 330 327 329 330 328 321 320 320 322 321 314 310 311 318 320
71 56 79 105 83 327 57 352 18 62 29 275 121 298 122 323 223 164 102 217 213 239 197 232 246 206 294 358 307 290 276 225 250 260 243 247 267 278 290 289 53 45 316 319 245 328 94 22 345 344 325 293 312 332 323 321 267 22 35 20 354 342 341 326 316 317 282 282 331 342 317 319 319 325 327 327 327 321 320 317 318 316 311 308 308 314 314 314